Starlink 33907

operational
NORAD ID: 63769 Int'l Des: 2025-089 Owner: SPXS Country: US Constellation: starlink
LEOCIRCULAR

Starlink 33907について

説明を読み込み中...

リアルタイム位置

3D地球を読み込み中...

次回通過

高度履歴

Altitude vs Time

uPlot chart will show altitude changes over time

軌道要素

1 63769U 25089U 26036.56459373 .00041127 00000-0 14942-2 0 9991
2 63769 42.9982 226.7249 0000667 274.3413 85.7362 15.27613446 43997
Epoch: Feb 5, 2026 • Age: 26 hours

現在のステータス

高度 486.8 km
速度 7.62 km/s
衛星直下点 -19.35°S, 52.3°E
打ち上げ日 Apr 29, 2025
運用期間 0.7 years
タイプ internet

技術仕様

分類 Payload
質量 575.00 kg
乾燥質量 530.00 kg
総質量 575.00 kg
長さ 0.30 m
直径 4.10 m
スパン 29.00 m
形状 Box + pan
製造者 SPXS
バスタイプ Starlink V2MO
フェーズステータス In Orbit
所有者/国 SPXS/US

大規模コンステレーション

Loading constellations...